Location: Grasslands National Park East Block
(49.0708°N, 106.5295°W)
Time: 23:54:21
(UTC-06:00)

Vanguard 1 Rocket - Pass Details

Date: 27 September 2019
Orbit: 650 x 4226 km, 34.3° (Epoch: 17 October)

Event Time Altitude Azimuth Distance (km) Brightness Sun altitude
Rises 17:11:12 0° 233° (SW) 8,391 13.9 15.5°
Reaches altitude 10° 17:17:24 10° 228° (SW) 7,426 13.6 14.6°
Maximum altitude 17:40:31 46° 166° (SSE) 4,344 11.0 11.0°
Drops below altitude 10° 17:55:59 10° 101° (E) 5,165 10.7 8.5°
Sets 17:59:20 0° 95° (E) 5,774 10.9 8.0°
